Orbital Elements at Epoch 2459200.5 (2020-Dec-17.0) TDB
Reference: JPL 12 (heliocentric ecliptic J2000)
Element | Value | Uncertainty (1-sigma) | Units |
e | .2302912258195717 | 3.9538e-08 | |
a | 2.224991554185467 | 9.8979e-09 | au |
q | 1.712595521733902 | 9.1328e-08 | au |
i | 3.490907869769223 | 4.924e-06 | deg |
node | 64.61856332451069 | 7.7575e-05 | deg |
peri | 237.6950611253172 | 7.8985e-05 | deg |
M | 326.7568622844965 | 1.9898e-05 | deg |
tp | 2459312.441335792661 (2021-Apr-07.94133579) | 6.7492e-05 | TDB |
period | 1212.246606509822 3.32 | 8.0891e-06 2.215e-08 | d yr |
n | .2969692784180899 | 1.9816e-09 | deg/d |
Q | 2.737387586637033 | 1.2177e-08 | au |
|
| | Orbit Determination Parameters
Additional Information
|